Weather History for Fort Sill, OK

Change the Weather History Date:

Wednesday, November 6, 2013

  Actual Average Record
Temperature  
Mean Temperature 48 °F -  
Max Temperature 56 °F 67 °F 83 °F (1989)
Min Temperature 38 °F 42 °F 23 °F (1951)
Degree Days  
Heating Degree Days 18    
Moisture  
Dew Point 36 °F    
Average Humidity 68    
Maximum Humidity 93    
Minimum Humidity 37    
Precipitation  
Precipitation 0.00 in - - ()
Sea Level Pressure  
Sea Level Pressure 30.23 in    
Wind  
Wind Speed 17 mph (North)    
Max Wind Speed 28 mph    
Max Gust Speed 34 mph    
Visibility 10 miles    
Events      
Averages and records for this station are not official NWS values.
T = Trace of Precipitation, MM = Missing Value Source: NWS Daily Summary

Daily Weather History Graph

Daily Weather History Graph

Search for Another Location

Airport:

Trip Planner

Search our weather history database for the weather conditions in past years. The results will help you decide how hot, cold, wet, or windy it might be!

Date:

Astronomy

Nov. 06, 2013 Rise Set
Actual Time 6:59 AM CST 5:35 PM CST
Civil Twilight 6:32 AM CST 6:01 PM CST
Nautical Twilight 6:02 AM CST 6:31 PM CST
Astronomical Twilight 5:33 AM CST 7:00 PM CST
Moon 10:11 AM CST (11/6) 8:44 PM CST (11/6)
Length of Visible Light 11h 28m
Length of Day
10h 36m
Waxing Crescent, 14% of the Moon is Illuminated
Nov 6
Waxing Crescent
Nov 9
First Quarter
Nov 17
Full
Nov 25
Last Quarter
Dec 2
New

Hourly Weather History & Observations

Time (CST) Temp. Windchill Dew Point Humidity Pressure Visibility Wind Dir Wind Speed Gust Speed Precip Events Conditions
12:07 AM 48.2 °F - 46.4 °F 93% 30.02 in 10.0 mi North 26.5 mph 32.2 mph N/A   Mostly Cloudy
12:09 AM 48.2 °F - 46.4 °F 93% 30.01 in 10.0 mi North 27.6 mph 31.1 mph N/A   Light Drizzle
12:31 AM 48.2 °F - 44.6 °F 87% 30.04 in 10.0 mi North 19.6 mph 33.4 mph N/A   Mostly Cloudy
12:58 AM 47.7 °F - 43.5 °F 86% 30.06 in 10.0 mi North 23.0 mph 31.1 mph 0.00 in   Mostly Cloudy
1:58 AM 46.4 °F 39.0 °F 41.4 °F 83% 30.04 in 10.0 mi North 19.6 mph 31.1 mph N/A   Scattered Clouds
2:58 AM 44.8 °F 36.2 °F 39.4 °F 81% 30.06 in 10.0 mi North 23.0 mph 34.5 mph N/A   Clear
3:58 AM 43.2 °F 35.0 °F 37.8 °F 81% 30.10 in 10.0 mi North 18.4 mph 27.6 mph N/A   Clear
4:58 AM 41.9 °F 33.4 °F 36.9 °F 82% 30.13 in 10.0 mi North 18.4 mph 26.5 mph N/A   Clear
5:58 AM 40.8 °F 35.0 °F 36.7 °F 85% 30.19 in 10.0 mi North 9.2 mph - N/A   Clear
6:58 AM 41.2 °F 34.5 °F 36.5 °F 83% 30.22 in 10.0 mi North 11.5 mph - N/A   Mostly Cloudy
7:58 AM 41.9 °F 34.3 °F 36.7 °F 82% 30.25 in 9.0 mi North 15.0 mph - N/A   Overcast
8:58 AM 42.6 °F 35.2 °F 36.3 °F 78% 30.27 in 10.0 mi North 15.0 mph 24.2 mph N/A   Overcast
9:58 AM 47.3 °F - 36.7 °F 67% 30.28 in 10.0 mi North 20.7 mph 24.2 mph N/A   Clear
10:58 AM 49.5 °F - 36.7 °F 61% 30.29 in 10.0 mi North 17.3 mph - N/A   Clear
11:58 AM 52.0 °F - 36.3 °F 55% 30.29 in 10.0 mi North 13.8 mph 17.3 mph N/A   Clear
12:53 PM 53.6 °F - 35.6 °F 51% 30.28 in 10.0 mi NNE 13.8 mph 20.7 mph N/A   Clear
12:58 PM 53.8 °F - 35.8 °F 51% 30.28 in 10.0 mi NNE 12.7 mph 20.7 mph N/A   Clear
1:58 PM 56.1 °F - 34.0 °F 43% 30.27 in 10.0 mi North 15.0 mph - N/A   Clear
2:04 PM 55.4 °F - 32.0 °F 41% 30.27 in 10.0 mi NNW 15.0 mph - N/A   Clear
2:58 PM 56.7 °F - 32.0 °F 39% 30.28 in 10.0 mi North 12.7 mph - N/A   Clear
3:58 PM 56.5 °F - 30.6 °F 37% 30.29 in 10.0 mi NNE 10.4 mph - N/A   Clear
4:58 PM 54.5 °F - 30.4 °F 40% 30.31 in 10.0 mi NNE 8.1 mph - N/A   Clear
5:58 PM 48.6 °F - 30.0 °F 49% 30.32 in 10.0 mi NE 4.6 mph - N/A   Clear
6:58 PM 46.9 °F - 30.2 °F 52% 30.34 in 8.0 mi ENE 4.6 mph - N/A   Clear
7:58 PM 43.3 °F 40.7 °F 31.8 °F 64% 30.35 in 10.0 mi NE 4.6 mph - N/A   Clear
8:58 PM 43.0 °F - 32.2 °F 66% 30.37 in 8.0 mi Calm Calm - N/A   Clear
9:58 PM 39.6 °F - 32.2 °F 75% 30.38 in 10.0 mi NW 1.2 mph - N/A   Clear
10:58 PM 39.0 °F 36.8 °F 32.7 °F 78% 30.39 in 9.0 mi NNW 3.5 mph - N/A   Clear
11:58 PM 38.3 °F - 32.4 °F 79% 30.39 in 10.0 mi Calm Calm - N/A   Clear